Arroyo Seco, NM

10:40 AM MST on February 08, 2016 (GMT -0700)
Taos Municipal

Weather History for KSKX - September, 2013

Change the Weather History Date:

Friday, September 13, 2013

  Actual Average Record
Temperature  
Mean Temperature 56 °F -  
Max Temperature 60 °F 73 °F 86 °F (2000)
Min Temperature 53 °F 41 °F 33 °F (2008)
Degree Days  
Heating Degree Days 8    
Growing Degree Days 6 (Base 50)    
Moisture  
Dew Point 52 °F    
Average Humidity 86    
Maximum Humidity 94    
Minimum Humidity 63    
Precipitation  
Precipitation 1.29 in - - ()
Sea Level Pressure  
Sea Level Pressure 30.24 in    
Wind  
Wind Speed 4 mph (South)    
Max Wind Speed 10 mph    
Max Gust Speed -    
Visibility 9 miles    
Events      
Averages and records for this station are not official NWS values.
T = Trace of Precipitation, MM = Missing Value Source: NWS Daily Summary

Daily Weather History Graph

Daily Weather History Graph

Search for Another Location

Airport or City:

Trip Planner

Search our weather history database for the weather conditions in past years. The results will help you decide how hot, cold, wet, or windy it might be!

Date:

Astronomy

Sep. 13, 2013 Rise Set
Actual Time 6:43 AM MDT 7:12 PM MDT
Civil Twilight 6:17 AM MDT 7:38 PM MDT
Nautical Twilight 5:47 AM MDT 8:08 PM MDT
Astronomical Twilight 5:16 AM MDT 8:39 PM MDT
Moon 2:57 PM MDT (9/13) 12:23 AM MDT (9/13)
Length of Visible Light 13h 20m
Length of Day
12h 28m
Waxing Gibbous, 62% of the Moon is Illuminated
Sep 13
Waxing Gibbous
Sep 19
Full
Sep 26
Last Quarter
Oct 4
New
Oct 11
First Quarter

Hourly Weather History & Observations

Time (MDT) Temp. Dew Point Humidity Pressure Visibility Wind Dir Wind Speed Gust Speed Precip Events Conditions
12:15 AM 57.2 °F 53.6 °F 88% 30.29 in 9.0 mi SE 4.6 mph - 0.02 in   Mostly Cloudy
12:35 AM 57.2 °F 53.6 °F 88% 30.28 in 9.0 mi Calm Calm - 0.03 in   Overcast
12:55 AM 57.2 °F 53.6 °F 88% 30.28 in 10.0 mi Calm Calm - 0.04 in   Overcast
1:15 AM 57.2 °F 53.6 °F 88% 30.28 in 10.0 mi South 4.6 mph - N/A   Overcast
1:35 AM 57.2 °F 53.6 °F 88% 30.27 in 10.0 mi SSW 5.8 mph - N/A   Mostly Cloudy
1:55 AM 57.2 °F 53.6 °F 88% 30.27 in 10.0 mi WSW 3.5 mph - N/A   Overcast
2:15 AM 57.2 °F 53.6 °F 88% 30.27 in 10.0 mi West 4.6 mph - N/A   Overcast
2:35 AM 55.4 °F 53.6 °F 94% 30.26 in 10.0 mi Calm Calm - 0.01 in   Overcast
2:55 AM 55.4 °F 53.6 °F 94% 30.25 in 10.0 mi Calm Calm - 0.01 in   Overcast
3:15 AM 55.4 °F 53.6 °F 94% 30.25 in 10.0 mi WSW 3.5 mph - 0.02 in   Overcast
3:35 AM 55.4 °F 53.6 °F 94% 30.26 in 10.0 mi SW 6.9 mph - 0.03 in   Overcast
3:55 AM 55.4 °F 53.6 °F 94% 30.26 in 7.0 mi SW 4.6 mph - 0.06 in   Overcast
4:15 AM 55.4 °F 53.6 °F 94% 30.26 in 6.0 mi South 6.9 mph - 0.08 in   Mostly Cloudy
4:35 AM 55.4 °F 53.6 °F 94% 30.26 in 7.0 mi SE 6.9 mph - 0.20 in   Overcast
4:55 AM 55.4 °F 53.6 °F 94% 30.26 in 7.0 mi SE 8.1 mph - 0.24 in   Overcast
5:15 AM 55.4 °F 53.6 °F 94% 30.26 in 7.0 mi SSE 8.1 mph - 0.06 in   Overcast
5:35 AM 55.4 °F 53.6 °F 94% 30.26 in 10.0 mi SE 6.9 mph - 0.11 in   Overcast
5:55 AM 55.4 °F 51.8 °F 88% 30.25 in 9.0 mi SE 8.1 mph - 0.13 in   Overcast
6:15 AM 55.4 °F 51.8 °F 88% 30.25 in 8.0 mi SE 5.8 mph - 0.03 in   Overcast
6:35 AM 55.4 °F 51.8 °F 88% 30.25 in 7.0 mi SSE 4.6 mph - 0.07 in   Overcast
6:55 AM 55.4 °F 51.8 °F 88% 30.25 in 10.0 mi ESE 4.6 mph - 0.08 in   Overcast
7:15 AM 55.4 °F 51.8 °F 88% 30.25 in 10.0 mi East 10.4 mph - N/A   Overcast
7:35 AM 55.4 °F 53.6 °F 94% 30.25 in 10.0 mi East 4.6 mph - N/A   Overcast
7:55 AM 55.4 °F 53.6 °F 94% 30.25 in 10.0 mi ESE 4.6 mph - N/A   Overcast
8:15 AM 55.4 °F 53.6 °F 94% 30.25 in 6.0 mi SE 5.8 mph - 0.02 in   Overcast
8:35 AM 55.4 °F 51.8 °F 88% 30.25 in 8.0 mi SE 5.8 mph - 0.04 in   Overcast
8:55 AM 55.4 °F 53.6 °F 94% 30.26 in 9.0 mi South 8.1 mph - 0.08 in   Overcast
9:15 AM 55.4 °F 51.8 °F 88% 30.26 in 9.0 mi South 5.8 mph - 0.05 in   Overcast
9:35 AM 55.4 °F 51.8 °F 88% 30.28 in 4.0 mi South 10.4 mph - 0.13 in   Overcast
9:55 AM 53.6 °F 51.8 °F 94% 30.28 in 10.0 mi WSW 8.1 mph - 0.22 in   Mostly Cloudy
10:15 AM 53.6 °F 51.8 °F 94% 30.29 in 8.0 mi SSW 5.8 mph - 0.08 in   Mostly Cloudy
10:35 AM 53.6 °F 51.8 °F 94% 30.29 in 10.0 mi SSW 9.2 mph - 0.15 in   Overcast
10:55 AM 53.6 °F 51.8 °F 94% 30.30 in 10.0 mi SW 10.4 mph - 0.19 in   Overcast
11:15 AM 53.6 °F 51.8 °F 94% 30.30 in 10.0 mi SW 8.1 mph - 0.04 in   Overcast
11:35 AM 53.6 °F 51.8 °F 94% 30.30 in 10.0 mi SW 10.4 mph - 0.09 in   Overcast
11:55 AM 53.6 °F 51.8 °F 94% 30.30 in 10.0 mi SW 4.6 mph - 0.14 in   Overcast
12:15 PM 53.6 °F 51.8 °F 94% 30.29 in 8.0 mi SW 4.6 mph - 0.02 in   Mostly Cloudy
12:35 PM 55.4 °F 51.8 °F 88% 30.29 in 10.0 mi SE 5.8 mph - 0.03 in   Overcast
12:55 PM 55.4 °F 51.8 °F 88% 30.28 in 10.0 mi SSE 6.9 mph - 0.03 in   Overcast
1:15 PM 55.4 °F 51.8 °F 88% 30.28 in 10.0 mi SSE 4.6 mph - 0.01 in   Overcast
1:35 PM 53.6 °F 50.0 °F 88% 30.27 in 10.0 mi SSE 4.6 mph - 0.01 in   Overcast
1:55 PM 53.6 °F 51.8 °F 94% 30.26 in 10.0 mi SE 6.9 mph - 0.03 in   Overcast
2:15 PM 53.6 °F 51.8 °F 94% 30.25 in 8.0 mi SE 8.1 mph - 0.03 in   Overcast
2:35 PM 55.4 °F 51.8 °F 88% 30.23 in 10.0 mi ESE 5.8 mph - 0.04 in   Overcast
2:55 PM 55.4 °F 51.8 °F 88% 30.23 in 10.0 mi South 5.8 mph - 0.04 in   Overcast
3:15 PM 55.4 °F 50.0 °F 82% 30.22 in 10.0 mi South 4.6 mph - N/A   Overcast
3:35 PM 57.2 °F 48.2 °F 72% 30.22 in 10.0 mi WSW 3.5 mph - N/A   Scattered Clouds
3:55 PM 57.2 °F 51.8 °F 82% 30.22 in 10.0 mi NW 4.6 mph - N/A   Scattered Clouds
4:15 PM 57.2 °F 50.0 °F 77% 30.20 in 10.0 mi Calm Calm - N/A   Mostly Cloudy
4:35 PM 59.0 °F 48.2 °F 67% 30.21 in 10.0 mi Calm Calm - N/A   Scattered Clouds
4:55 PM 59.0 °F 48.2 °F 67% 30.20 in 10.0 mi Calm Calm - N/A   Scattered Clouds
5:15 PM 59.0 °F 48.2 °F 67% 30.19 in 10.0 mi Calm Calm - N/A   Mostly Cloudy
5:35 PM 60.8 °F 48.2 °F 63% 30.19 in 10.0 mi Calm Calm - N/A   Partly Cloudy
5:55 PM 59.0 °F 48.2 °F 67% 30.19 in 10.0 mi Calm Calm - N/A   Mostly Cloudy
6:15 PM 59.0 °F 48.2 °F 67% 30.20 in 10.0 mi West 5.8 mph - N/A   Scattered Clouds
6:35 PM 59.0 °F 48.2 °F 67% 30.20 in 10.0 mi West 3.5 mph - N/A   Partly Cloudy
6:55 PM 59.0 °F 48.2 °F 67% 30.19 in 10.0 mi Calm Calm - N/A   Partly Cloudy
7:15 PM 57.2 °F 50.0 °F 77% 30.19 in 10.0 mi Calm Calm - N/A   Scattered Clouds
7:35 PM 57.2 °F 51.8 °F 82% 30.19 in 10.0 mi Calm Calm - N/A   Mostly Cloudy
7:55 PM 57.2 °F 50.0 °F 77% 30.19 in 10.0 mi Calm Calm - N/A   Overcast
8:15 PM 57.2 °F 51.8 °F 82% 30.20 in 10.0 mi Calm Calm - N/A   Overcast
8:35 PM 57.2 °F 51.8 °F 82% 30.21 in 10.0 mi NW 3.5 mph - N/A   Overcast
8:55 PM 57.2 °F 51.8 °F 82% 30.21 in 10.0 mi Calm Calm - N/A   Mostly Cloudy
9:15 PM 57.2 °F 51.8 °F 82% 30.21 in 10.0 mi ENE 3.5 mph - N/A   Overcast
9:35 PM 55.4 °F 51.8 °F 88% 30.21 in 10.0 mi ENE 3.5 mph - N/A   Mostly Cloudy
9:55 PM 55.4 °F 51.8 °F 88% 30.22 in 10.0 mi Calm Calm - N/A   Scattered Clouds
10:15 PM 55.4 °F 51.8 °F 88% 30.22 in 10.0 mi Calm Calm - N/A   Mostly Cloudy
10:35 PM 55.4 °F 51.8 °F 88% 30.22 in 10.0 mi WNW 3.5 mph - N/A   Overcast
10:55 PM 55.4 °F 51.8 °F 88% 30.23 in 10.0 mi West 4.6 mph - N/A   Overcast
11:15 PM 55.4 °F 51.8 °F 88% 30.23 in 10.0 mi SSE 3.5 mph - N/A   Overcast
11:35 PM 55.4 °F 51.8 °F 88% 30.23 in 10.0 mi SE 4.6 mph - N/A   Overcast
11:55 PM 55.4 °F 51.8 °F 88% 30.23 in 10.0 mi SE 6.9 mph - N/A   Overcast